Stations météo

Publicité
Beauvais, France (7055): Température de l'air & dewpoint: 21.10.2020 18:00:00 - 27.10.2020 18:00:00 (CET)Beauvais, France (7055): Température de l'air 5cm: 21.10.2020 18:00:00 - 27.10.2020 18:00:00 (CET)Beauvais, France (7055): Température de l'air -20cm & Température de l'air -100cm: 21.10.2020 18:00:00 - 27.10.2020 18:00:00 (CET)Beauvais, France (7055): Vitesse du vent & gusts: 21.10.2020 18:00:00 - 27.10.2020 18:00:00 (CET)Beauvais, France (7055): Direction du vent: 21.10.2020 18:00:00 - 27.10.2020 18:00:00 (CET)Beauvais, France (7055): reduced air pressure: 21.10.2020 18:00:00 - 27.10.2020 18:00:00 (CET)Beauvais, France (7055): visibility: 21.10.2020 18:00:00 - 27.10.2020 18:00:00 (CET)Beauvais, France (7055): Ensoleillement: 21.10.2020 18:00:00 - 27.10.2020 18:00:00 (CET)Beauvais, France (7055): Quantités de précipitations: 21.10.2020 18:00:00 - 27.10.2020 18:00:00 (CET)
Date & Time tt [°C] td [°C] tt 5cm [°C] tt -20cm [°C] tt -100cm [°C] ff [km/h] ff [knt] fx [km/h] fx [knt] dd ppp [hPa] vv [km] sd [min] rr [mm]
27.10.2020 18:00:00 11,5 10,7 10,8 12,7 14,0 30 16 52 28 S 1001,7 12 0 0,0
27.10.2020 17:00:00 11,3 10,4 10,7 12,7 14,0 31 17 48 26 S 1001,9 55 0 0,2
27.10.2020 16:00:00 10,8 10,3 10,7 12,7 14,0 23 12 52 28 S 1002,8 4,9 0 0,4
27.10.2020 15:00:00 10,7 10,1 10,6 12,7 14,0 30 16 48 26 S 1003,1 3,2 0 0,6
27.10.2020 14:00:00 10,5 9,4 10,4 12,7 14,0 29 16 49 27 S 1004,4 7 0 0,0
27.10.2020 13:00:00 10,5 8,9 10,7 12,8 14,0 26 14 41 22 S 1005,5 20 0 0,0
27.10.2020 12:00:00 10,2 8,8 9,8 12,8 14,0 22 12 38 21 S 1006,5 19 0 0,0
27.10.2020 11:00:00 9,5 7,8 9,8 12,8 14,0 23 12 36 19 SSW 1006,8 19 0 0,0
27.10.2020 10:00:00 8,8 7,1 8,2 12,9 14,1 19 10 32 18 SSW 1007,0 41 0 0,0
27.10.2020 09:00:00 8,1 6,7 7,2 12,9 14,0 15 8 28 15 SSW 1007,2 20 0 0,0
27.10.2020 08:00:00 7,7 6,6 6,7 12,9 14,0 16 9 24 13 S 1006,7 39 0 0,0
27.10.2020 07:00:00 7,5 6,6 6,4 12,9 14,0 9 5 19 10 S 1006,7 42 0 0,0
27.10.2020 06:00:00 7,6 6,5 6,1 13,0 14,1 10 5 17 9 S 1006,5 20 0 0,0
27.10.2020 05:00:00 7,5 6,6 6,0 13,0 14,1 15 8 30 16 SW 1006,1 44 0 0,0
27.10.2020 04:00:00 7,7 6,8 6,1 13,0 14,1 17 9 32 17 WSW 1006,0 59 0 0,0
27.10.2020 03:00:00 7,8 6,6 6,3 13,1 14,1 16 9 29 15 SW 1006,2 60 0 0,0
27.10.2020 02:00:00 8,6 7,1 8,2 13,1 14,1 14 8 28 15 SW 1006,4 60 0 0,0
27.10.2020 01:00:00 8,7 7,1 8,1 13,1 14,1 15 8 25 14 SW 1006,3 56 0 0,0
27.10.2020 00:00:00 8,9 7,2 7,1 13,2 14,1 13 7 26 14 WSW 1006,4 60 0 0,0
26.10.2020 23:00:00 8,5 7,1 7,1 13,2 14,1 16 9 31 17 SW 1006,0 60 0 0,0
26.10.2020 22:00:00 8,9 7,2 7,2 13,2 14,1 23 12 34 18 SW 1005,6 60 0 0,0
26.10.2020 21:00:00 9,1 6,9 7,4 13,2 14,1 17 9 30 16 SW 1004,9 60 0 0,0
26.10.2020 20:00:00 9,7 7,0 7,8 13,2 14,1 18 10 34 18 SW 1004,6 60 0 0,0
26.10.2020 19:00:00 10,6 6,5 8,9 13,2 14,1 19 11 42 23 SW 1004,4 60 0 0,0
26.10.2020 18:00:00 11,6 6,7 10,6 13,1 14,1 21 11 35 19 WSW 1003,9 60 0 0,0
26.10.2020 17:00:00 12,2 7,9 11,3 13,1 14,1 18 10 43 23 WSW 1003,5 43 12 0,0
26.10.2020 16:00:00 12,3 7,8 12,6 13,1 14,1 22 12 42 23 SW 1003,1 40 32 0,0
26.10.2020 15:00:00 12,8 7,7 13,5 13,1 14,1 31 17 50 27 SW 1003,1 48 25 0,0
26.10.2020 14:00:00 13,2 8,3 15,7 13,1 14,1 27 14 48 26 SW 1002,9 26 53 0,0
26.10.2020 13:00:00 12,6 8,1 13,4 13,2 14,1 28 15 49 27 SW 1003,4 19 43 0,0
26.10.2020 12:00:00 11,6 7,7 15,6 13,2 14,1 34 18 47 26 SW 1003,8 20 51 0,0
26.10.2020 11:00:00 10,8 7,7 14,5 13,3 14,1 26 14 42 23 SW 1003,8 22 50 0,0
26.10.2020 10:00:00 9,6 6,9 8,6 13,3 14,1 28 15 41 22 SW 1003,7 18 58 0,0
26.10.2020 09:00:00 8,1 6,6 6,7 13,3 14,1 24 13 40 22 SW 1004,2 36 33 0,0
26.10.2020 08:00:00 7,5 6,0 5,3 13,4 14,1 19 10 35 19 SW 1003,7 35 0 0,0
26.10.2020 07:00:00 7,1 5,7 5,2 13,4 14,1 18 10 29 16 SSW 1002,7 59 0 0,0
26.10.2020 06:00:00 7,4 6,0 5,6 13,4 14,1 16 9 29 16 SSW 1002,1 60 0 0,0
26.10.2020 05:00:00 8,0 6,3 6,0 13,5 14,1 16 9 37 20 SW 1001,8 60 0 0,0
26.10.2020 04:00:00 8,1 6,6 6,3 13,5 14,1 21 11 38 21 SSW 1001,6 60 0 0,0
26.10.2020 03:00:00 8,4 7,0 6,7 13,6 14,1 25 14 40 21 SSW 1001,7 60 0 0,0
26.10.2020 02:00:00 8,4 7,2 6,7 13,6 14,1 21 11 38 20 SW 1001,6 60 0 0,0
26.10.2020 01:00:00 8,7 7,3 7,1 13,6 14,1 22 12 43 23 SW 1001,7 59 0 0,0
26.10.2020 00:00:00 9,0 7,6 7,5 13,6 14,1 25 13 42 23 SW 1002,0 60 0 0,0
25.10.2020 23:00:00 9,0 8,1 6,0 13,7 14,1 16 8 29 16 SSW 1002,0 53 0 0,0
25.10.2020 22:00:00 9,1 8,0 7,4 13,7 14,1 14 7 26 14 S 1001,9 60 0 0,0
25.10.2020 21:00:00 9,4 8,0 7,5 13,7 14,1 17 9 27 15 SSW 1001,9 60 0 0,0
25.10.2020 20:00:00 9,8 8,2 8,1 13,7 14,1 14 8 22 12 S 1002,0 60 0 0,0
25.10.2020 19:00:00 10,3 8,1 8,8 13,7 14,1 8 5 24 13 S 1001,7 60 0 0,0
25.10.2020 18:00:00 11,3 8,5 9,8 13,7 14,1 20 11 34 18 SW 1002,0 46 0 0,0
25.10.2020 17:00:00 11,9 9,5 11,4 13,7 14,1 19 10 49 26 SSW 1001,5 60 0 0,0
25.10.2020 16:00:00 12,2 9,6 12,5 13,7 14,1 26 14 46 25 SSW 1001,7 55 11 0,0
25.10.2020 15:00:00 11,8 9,9 11,7 13,7 14,1 26 14 39 21 S 1001,5 51 4 0,0
25.10.2020 14:00:00 11,5 9,4 11,5 13,7 14,1 22 12 39 21 SSW 1001,7 60 0 0,0
25.10.2020 13:00:00 11,4 9,8 11,6 13,7 14,1 23 12 47 26 SSW 1002,7 17 0 0,0
25.10.2020 12:00:00 11,8 9,9 12,2 13,7 14,1 23 12 41 22 SSW 1003,3 59 0 0,0
25.10.2020 11:00:00 11,7 10,1 10,7 13,8 14,1 19 11 33 18 SSW 1003,0 58 4 0,0
25.10.2020 10:00:00 11,1 9,8 10,5 13,8 14,0 19 10 32 17 SSW 1003,5 60 0 0,0
25.10.2020 09:00:00 11,2 9,8 10,5 13,8 14,1 15 8 32 17 SSW 1003,0 59 0 0,0
25.10.2020 08:00:00 11,3 10,0 10,3 13,8 14,0 16 9 32 17 SW 1003,1 60 0 0,0
25.10.2020 07:00:00 11,3 9,7 10,4 13,8 14,0 17 9 41 22 SSW 1002,4 60 0 0,2
25.10.2020 06:00:00 11,7 10,4 10,9 13,8 14,1 18 10 36 19 S 1002,3 9 0 0,8
25.10.2020 05:00:00 12,3 10,7 11,1 13,8 14,0 22 12 42 23 SSW 1002,5 20 0 0,4
25.10.2020 04:00:00 13,2 11,1 11,9 13,8 14,1 31 17 55 30 SSW 1002,7 60 0 1,0
25.10.2020 03:00:00 13,6 10,8 12,0 13,8 14,0 34 18 69 37 S 1002,4 14 0 0,2
25.10.2020 02:00:00 14,3 10,5 13,5 13,7 14,0 35 19 62 33 S 1003,2 60 0 0,0
25.10.2020 01:00:00 - - - - - - - - - - - - - -
25.10.2020 00:00:00 14,4 10,6 13,7 13,7 14,0 30 16 63 34 S 1004,7 60 0 0,0
24.10.2020 23:00:00 14,9 10,7 13,7 13,7 14,0 37 20 64 35 SSW 1005,7 60 0 0,0
24.10.2020 22:00:00 14,9 11,5 14,3 13,7 14,0 32 17 62 33 SSW 1006,5 60 0 0,0
24.10.2020 21:00:00 15,1 12,0 13,9 13,7 14,0 31 17 58 32 SSW 1006,2 60 0 0,0
24.10.2020 20:00:00 15,0 12,7 13,7 13,6 14,0 26 14 49 26 S 1007,3 60 0 0,0
24.10.2020 19:00:00 14,5 13,2 13,8 13,6 14,0 31 17 55 30 S 1008,0 18 0 0,0
24.10.2020 18:00:00 15,7 13,0 15,2 13,6 14,0 31 17 52 28 S 1008,1 60 0 0,0
24.10.2020 17:00:00 15,7 13,4 15,1 13,6 14,0 25 13 47 25 S 1008,7 60 0 0,0
24.10.2020 16:00:00 15,3 14,2 15,5 13,6 14,0 26 14 44 24 S 1009,6 20 3 0,0
24.10.2020 15:00:00 16,0 12,7 15,7 13,6 14,0 27 15 49 26 SSW 1010,3 46 0 0,0
24.10.2020 14:00:00 16,4 12,9 14,9 13,6 14,0 30 16 45 25 SSW 1010,6 42 4 0,0
24.10.2020 13:00:00 14,9 13,6 15,2 13,6 14,0 26 14 48 26 S 1011,4 13 0 0,0
24.10.2020 12:00:00 15,7 12,3 15,0 13,6 14,0 27 15 51 28 SSW 1012,1 44 10 0,0
24.10.2020 11:00:00 14,7 12,6 13,6 13,6 14,0 35 19 52 28 SSW 1012,3 36 0 0,0
24.10.2020 10:00:00 13,5 12,6 12,8 13,6 14,0 23 13 39 21 S 1012,5 15 0 0,0
24.10.2020 09:00:00 13,0 11,7 12,6 13,6 14,0 20 11 42 23 S 1013,0 20 14 0,0
24.10.2020 08:00:00 12,9 11,1 10,8 13,7 13,9 25 13 37 20 SSW 1012,9 58 0 0,0
24.10.2020 07:00:00 12,1 10,8 10,8 13,7 14,0 17 9 39 21 SSW 1013,0 60 0 0,0
24.10.2020 06:00:00 12,2 10,6 11,2 13,7 13,9 21 12 32 17 S 1013,2 60 0 0,2
24.10.2020 05:00:00 12,2 10,3 10,6 13,7 13,9 22 12 32 18 S 1013,4 60 0 0,0
24.10.2020 04:00:00 11,5 9,7 10,3 13,7 13,9 13 7 29 16 SSW 1013,8 60 0 0,0
24.10.2020 03:00:00 11,4 9,8 9,2 13,8 14,0 14 8 24 13 SSW 1014,4 60 0 0,0
24.10.2020 02:00:00 11,0 9,7 9,0 13,8 14,0 13 7 29 15 S 1014,8 60 0 0,0
24.10.2020 01:00:00 11,7 10,4 9,4 13,8 13,9 11 6 22 12 SW 1014,7 55 0 0,0
24.10.2020 00:00:00 11,9 10,5 6,6 13,8 13,9 11 6 21 12 SW 1014,6 55 0 0,0
23.10.2020 23:00:00 11,3 10,2 6,5 13,7 13,9 9 5 16 9 WSW 1014,9 40 0 0,0
23.10.2020 22:00:00 11,9 10,3 8,1 13,7 13,9 9 5 21 11 W 1014,4 58 0 0,0
23.10.2020 21:00:00 14,1 11,1 11,8 13,7 13,9 15 8 23 13 WSW 1013,3 60 0 0,0
23.10.2020 20:00:00 14,6 11,4 11,1 13,6 13,9 12 6 21 12 SW 1012,9 60 0 0,0
23.10.2020 19:00:00 14,0 10,4 11,2 13,6 13,9 8 5 21 12 SSW 1012,9 60 0 0,0
23.10.2020 18:00:00 15,8 11,0 14,3 13,5 13,9 13 7 22 12 SW 1012,3 20 0 0,0
23.10.2020 17:00:00 16,4 10,9 15,2 13,5 13,9 15 8 30 16 SW 1012,0 8 7 0,0
23.10.2020 16:00:00 17,4 11,7 17,4 13,4 13,9 16 9 32 17 SW 1011,6 56 17 0,0
23.10.2020 15:00:00 18,4 10,5 19,3 13,4 13,9 19 10 33 18 WSW 1011,2 36 44 0,0
23.10.2020 14:00:00 17,5 10,8 21,8 13,4 13,9 22 12 30 16 WSW 1011,6 19 55 0,0
23.10.2020 13:00:00 17,0 11,5 23,4 13,4 13,9 18 10 29 16 SW 1011,6 31 60 0,0
23.10.2020 12:00:00 16,1 12,8 18,1 13,4 13,9 14 8 25 13 WSW 1011,9 18 33 0,0
23.10.2020 11:00:00 14,9 13,4 14,7 13,4 13,9 19 10 27 15 SW 1012,2 18 13 0,0
23.10.2020 10:00:00 14,3 13,7 13,9 13,4 13,9 10 5 23 12 SW 1011,9 19 0 0,0
23.10.2020 09:00:00 13,8 13,5 12,8 13,4 13,9 10 5 16 8 SSW 1011,6 18 5 0,0
23.10.2020 08:00:00 12,8 12,6 10,7 13,5 13,9 12 7 19 10 SSW 1011,0 19 0 0,0
23.10.2020 07:00:00 12,4 12,2 10,7 13,5 13,9 4 2 8 5 W 1011,0 6 0 0,0
23.10.2020 06:00:00 13,0 13,0 12,1 13,5 13,8 6 4 10 5 E 1010,7 8 0 0,2
23.10.2020 05:00:00 12,6 12,6 10,5 13,5 13,9 6 4 9 5 SE 1011,0 7 0 0,0
23.10.2020 04:00:00 11,5 11,5 10,2 13,5 13,8 4 2 8 4 ESE 1011,4 1,8 0 0,0
23.10.2020 03:00:00 10,6 10,6 9,1 13,6 13,8 3 2 4 2 E 1012,1 0,1 0 0,0
23.10.2020 02:00:00 10,5 10,5 7,2 13,6 13,8 2 1 10 5 WSW 1012,5 0,2 0 0,0
23.10.2020 01:00:00 10,4 10,4 7,7 13,6 13,8 4 2 7 4 N 1012,5 2,5 0 0,0
23.10.2020 00:00:00 10,5 10,3 8,5 13,6 13,8 4 2 7 4 ESE 1012,8 0,2 0 0,0
22.10.2020 23:00:00 10,5 10,5 7,8 13,6 13,8 4 2 7 4 ENE 1013,0 0,1 0 0,0
22.10.2020 22:00:00 10,5 10,3 6,6 13,5 13,8 0 0 6 3 N 1012,9 0,3 0 0,0
22.10.2020 21:00:00 10,5 9,9 6,7 13,5 13,8 4 2 6 4 ESE 1012,6 0,4 0 0,0
22.10.2020 20:00:00 12,0 11,4 7,4 13,5 13,8 0 0 10 5 N 1012,5 18 0 0,0
22.10.2020 19:00:00 12,7 11,4 7,9 13,4 13,8 3 2 5 3 SSW 1012,6 48 0 0,0
22.10.2020 18:00:00 16,1 13,0 11,7 13,4 13,8 4 2 22 12 SSW 1012,1 55 0 0,0
22.10.2020 17:00:00 17,1 13,4 16,3 13,3 13,8 15 8 31 17 SW 1011,9 58 11 0,0
22.10.2020 16:00:00 18,2 13,7 18,1 13,3 13,8 21 12 32 18 SSW 1011,4 30 21 0,0
22.10.2020 15:00:00 17,5 14,0 18,9 13,3 13,8 21 11 31 17 SW 1011,5 41 6 0,0
22.10.2020 14:00:00 17,2 14,3 18,3 13,3 13,8 11 6 25 13 SSW 1011,7 50 0 0,0
22.10.2020 13:00:00 16,9 14,0 18,3 13,3 13,8 16 9 29 15 SW 1011,9 55 0 0,0
22.10.2020 12:00:00 16,4 13,9 16,5 13,2 13,8 18 10 33 18 SSW 1012,1 49 0 0,0
22.10.2020 11:00:00 15,5 14,0 15,2 13,3 13,8 13 7 22 12 SW 1012,2 42 0 0,0
22.10.2020 10:00:00 14,9 13,8 14,6 13,3 13,8 13 7 19 10 SSW 1012,2 50 0 0,0
22.10.2020 09:00:00 14,6 13,8 13,3 13,3 13,8 7 4 13 7 S 1012,0 43 31 0,0
22.10.2020 08:00:00 13,3 12,5 12,0 13,3 13,8 3 1 8 4 SSW 1011,2 16 0 0,0
22.10.2020 07:00:00 12,6 12,0 10,3 13,3 13,8 4 2 14 8 SSE 1010,8 60 0 0,0
22.10.2020 06:00:00 12,4 11,6 10,1 13,3 13,8 5 3 13 7 SE 1010,7 60 0 0,0
22.10.2020 05:00:00 12,1 11,2 10,2 13,3 13,7 9 5 12 6 SSE 1010,8 60 0 0,0
22.10.2020 04:00:00 11,9 10,8 10,2 13,3 13,8 10 5 16 9 SE 1010,9 58 0 0,0
22.10.2020 03:00:00 13,2 11,8 12,0 13,2 13,7 11 6 26 14 SW 1010,5 60 0 0,0
22.10.2020 02:00:00 13,9 11,9 12,0 13,2 13,7 17 9 23 13 SW 1010,8 60 0 0,0
22.10.2020 01:00:00 13,6 11,6 11,3 13,2 13,8 15 8 24 13 SSW 1010,3 11 0 0,0
22.10.2020 00:00:00 13,3 11,5 11,2 13,2 13,7 13 7 24 13 SSW 1009,7 60 0 0,0
21.10.2020 23:00:00 13,6 11,5 11,3 13,2 13,7 11 6 21 11 SSW 1009,4 60 0 0,0
21.10.2020 22:00:00 14,3 11,4 12,1 13,1 13,8 14 8 24 13 SSW 1008,9 60 0 0,0
21.10.2020 21:00:00 15,6 11,8 13,8 13,0 13,7 14 8 36 19 SW 1007,9 60 0 0,0
21.10.2020 20:00:00 17,0 11,9 14,3 13,0 13,8 22 12 40 21 SW 1006,9 60 0 0,0
21.10.2020 19:00:00 16,8 11,9 14,5 12,9 13,7 14 8 37 20 SW 1006,1 60 0 0,0
21.10.2020 18:00:00 17,9 11,9 15,8 12,9 13,7 23 13 44 24 SW 1004,8 60 5 0,0

tt = Température de l'air
td = dewpoint
tt 5cm = Température de l'air 5cm
tt -20cm = Température de l'air -20cm
tt -100cm = Température de l'air -100cm
ff = Vitesse du vent
fx = gusts
dd = Direction du vent
ppp = reduced air pressure
vv = visibility
sd = Ensoleillement
rr = Quantités de précipitations

stations d'obs. à proximité